Погода в Алексеевке

Погода в Алексеевке : погода сейчас, прогноз погоды и архив. Всё, что Вы хотите узнать о погоде в Алексеевке!

Поиск расширенной информации на нашем сайте:

Другие новости

Новости СМИ2

Главная страница сайта

Новости сайта

02.10.2013

Напоминаем, что на нашем новом сайте вы можете получить высокодетализированные прогнозы погоды по пунктам России, СНГ и мира (включающие важные для авиации метеовеличины, такие как направление и скорость ветра, видимость, явления погоды, количество и форма облачности, нижняя и верхняя граница облачности), а также ознакомиться с разнообразными материалами по авиационной метеорологии и подборкой полезных ссылок на эту тему.

Сайт Метеоцентр.Азия посвящён разработке технологий оптимизации авиаметеорологического обслуживания, включая проектирование и перспективное создание нескольких автоматизированных авиаметеорологических систем:
- система выпуска высокодетальных прогностических карт явлений погоды для нижнего воздушного пространства по России и ближнему зарубежью;
- система верификации прогнозов TAF (выпускаемых синоптиками официальных АМСГ РФ и ближнего зарубежья) и AUTOTAF (выпускаемых сайтом Метеоцентр.Азия) - выявление ошибок, онлайн-сопоставление с фактической погодой METAR, автоматическое внесение коррективов в прогнозы при резком отклонении фактической погоды от прогноза, подсчёт оправдываемости прогнозов по элементам и в целом;
- система обработки, анализа и отображения авиаметеорологической информации для применения провайдерами метеорологической информации.

Рекомендуем: Skf подшипник 6308 www.vekko-podshipnik.ru.

Погода в Алексеевке - сегодня

Время (UTC), дата Ветер
(°,м/с) 
Видим.   Явления Облачность Т
(°С)
Тd
(°С)
f(%) Тe
(°С)
Pmin
(гПа)
dP
(гПа)
Po
(мм)
O2
(г/м3)
Тmin Tmax R s Состояние
почвы
03 25.06.17 050 (СВ) 20000 м    3/0 средняя, верхняя 
[Ac trans|Ci fib]
+20 +15.3 74 +30  1007.7  1.1  723  268      0.3     
06 25.06.17 070 (В) 20000 м    6/6 1000 м 
[Cu med, cong]
+23.8 +13.3 52 +31  1007.2  0.1  723  265  +13.8    0.3     
09 25.06.17 тихо ()   20000 м    6/6 1000 м 
[Cu med, cong]
+25.5 +11.5 42 +30  1005.8  -1.2  722  264           
12 25.06.17 250 (З) 20000 м    4/4 1000 м 
[Cu hum]
+28.7 +9 29 +29  1004.4  -0.9  722  262           
15 25.06.17 тихо ()   20000 м    3/3 1000 м верхняя 
[Sc|Ci fib]
+26 +11 39 +29  1004.1  -0.6  721  263    +29.6       
18 25.06.17 160 (Ю) н/о    1/1 1000 м 
[Sc]
+18 +11.3 65 +23  1005.7  0.4  721  271    +29.6       
21 25.06.17 170 (Ю) н/о    1/0 средняя 
[Ac trans]
+16 +9.4 65 +18  1006.1  721  273           
00 26.06.17 230 (ЮЗ) 20000 м    8/0 средняя 
[Ac As]
+17.8 +9.1 57 +20  1006.1  0.3  722  271           
03 26.06.17 270 (З) 20000 м    4/0 средняя, верхняя 
[Ac trans|Cc]
+23.2 +11.2 47 +27  1005.6  0.3  722  266           
06 26.06.17 310 (СЗ) 20000 м    9/0 средняя, верхняя 
[Ac As|Ci]
+27.3 +12 39 +32  1005.3  0.3  722  262  +14.5         
09 26.06.17 310 (СЗ) 20000 м    9/4 600 м средняя, верхняя 
[Sc|Ac lent|Ci]
+25.8 +12.5 44 +31  1005.7  0.2  722  263           
12 26.06.17 280 (З) 20000 м    8/0 средняя, верхняя 
[Ac lent|Ci fib]
+26.7 +11.3 38 +30  1005.3  -0.3  722  263           
15 26.06.17 300 (СЗ) 20000 м    8/8 600 м средняя 
[Sc|Ac lent]
+23.4 +4.9 30 +23  1006.9  723  267    +28.1       
18 26.06.17 330 (СЗ) н/о    10/8 600 м средняя 
[Sc|Ac cast]
+18.6 +8.1 50 +20  1009.1  1.5  724  272    +28.1       
21 26.06.17 300 (СЗ) н/о    10/10 600 м кучево-дожд. 
[Cb cap]
+16.3 +7.9 57 +18  1010.6  725  274           
00 27.06.17 тихо ()   20000 м  в посл. час ливневой дождь  10/8 600 м кучево-дожд., средняя 
[Cb cap|Ac lent]
+13.2 +11 87 +16  1011.4  0.4  725  277           
03 27.06.17 350 (С) 20000 м  {ливн. осадки}  8/0 средняя, верхняя 
[Ac lent|Ci]
+15.1 +10.8 75 +19  1012.4  1.2  726  275         
06 27.06.17 330 (СЗ) 20000 м  {ливн. осадки}  9/9 1000 м 
[Cu med, cong]
+20.2 +6.5 41 +20  1012.2  0.5  726  271  +13.1       
09 27.06.17 290 (З) 20000 м    8/4 1000 м верхняя 
[Cu med, cong|Ci fib]
+21.8 +4.5 32 +22  1011.9  726  270           
12 27.06.17 300 (СЗ) 20000 м    3/3 600 м 
[Cu hum]
+23.3 +3.7 28 +23  1011.8  0.1  726  269           
15 27.06.17 300 (СЗ) 20000 м    ясно 
+22.8 +6.7 35 +23  1012.5  0.6  727  269    +24.1       
18 27.06.17 300 (СЗ) н/о    ясно 
+12.1 +7 71 +13  1015.3  1.1  728  280    +24.1       
21 27.06.17 тихо ()   н/о    ясно 
+11.3 +6.5 72 +11  1015.8  0.3  728  280           
00 28.06.17 тихо ()   20000 м    ясно 
+9.3 +6.1 80 +9  1016.7  0.6  728  283           
03 28.06.17 200 (Ю) 20000 м    ясно 
+21.2 +10.3 50 +23  1015.5  0.7  729  271           
Время (UTC), дата Ветер
(°,м/с) 
Видим.   Явления Облачность Т
(°С)
Тd
(°С)
f(%) Тe
(°С)
Pmin
(гПа)
dP
(гПа)
Po
(мм)
O2
(г/м3)
Тmin Tmax R s Состояние
почвы

Для получения пояснительной информации подведите курсор к названию столбца.

ПОГОДА в Алексеевке - архив

Всё, что Вы хотите узнать о погоде в Алексеевке - удобно и подробно!

Выберите нужную дату (начиная с 1 января 2015* года) и нажмите кнопку "Найти".
Будут отображены архивные сводки погоды по пункту Алексеевка, начиная с указанной даты.


Отображать данные в формате CSV (для использования в таблицах Excel)


Внимание! Наш архив погоды предназначен исключительно для личного некоммерческого использования в познавательных целях. Если Вам необходимы официальные справки о состоянии погоды (для производственных, юридических, коммерческих и т.п. целей), обращайтесь в органы Росгидромета.

*Примечание: данная дата относится к архиву по метеостанциям СССР (Россия, СНГ, Балтия).
Архив по метеостанциям Зарубежной Европы и Азии (кроме Китая) хранится 10 дней, по другим регионам земного шара (Китай, Африка, Америка, Австралия, Океания) - 1 день.

Алексеевка - район местоположения метеостанции


Название, широта, долгота, высота метеостанции:
Алексеевка 52°ш. 70.9°д. 384 м над ур. моря [Казахстан]

Дополнительная информация

В oтличие oт бoльшинства пoгoдных сайтoв мы публикуем пoдрoбную метеoинфoрмацию в детальнoм прoфессиoнальнoм фoрмате.

Характеристики температуры и влажнoсти вoздуха измеряются на высoте 2 м в тени вдали oт зданий и деревьев.
Скoрoсть ветра измеряется на высoте 10 м (на урoвне рoста челoвека скoрoсть ветра ниже в 1.5-2 раза). Если метеoстанция нахoдится в гoрoде или в лесу, тo скoрoсть ветра занижена на 2-4 м/с пo сравнению с oткрытым местoм. Скoрoсть ветра над акватoриями крупных рек и oзёр, а также на вершинах хoлмoв на 2-5 м/с выше, чем в oбычных услoвиях.
Атмoсфернoе давление в разных тoчках местнoсти мoжет значительнo oтличаться oт давления на метеoстанции, в зависимoсти oт услoвий рельефа (при пoдъёме на 10 м давление пoнижается примернo на 1 мм рт.ст.).